Location: Borbetomagus
(49.6328°N, 8.3592°E)
Time: 00:52:34
(UTC+00:00)

Meteor 1-27 Rocket - Pass Details

Date: 19 May 2025
Orbit: 830 x 908 km, 81.3° (Epoch: 22 June)

Event Time Altitude Azimuth Distance (km) Brightness Sun altitude
Exits shadow 22:30:54 32° 195° (SSW) 1,416 4.4 -19.4°
Maximum altitude 22:33:38 85° 282° (WNW) 853 3.7 -19.5°
Drops below altitude 10° 22:39:12 10° 11° (N) 2,457 7.1 -19.7°
Sets 22:41:36 0° 12° (NNE) 3,390 8.1 -19.8°
